Regional Weather Roundup
Issued by NWS

Home | Current Version | Previous Version | Graphics & Text | Print | Product List | Glossary Off
Versions: 1 2 3 4 5 6 7 8 9 10 11 12 13 14 15 16 17 18 19 20 21 22 23 24 25 26 27 28 29 30 31 32 33 34 35 36 37 38 39 40 41 42 43 44 45 46 47 48 49 50

000
ASUS43 KTOP 051359
RWRKS

WEATHER ROUNDUP FOR KANSAS
NATIONAL WEATHER SERVICE GOODLAND KS
900 AM CDT TUE MAY 05 2015

NOTE:  "FAIR" INDICATES FEW OR NO CLOUDS BELOW 12,000 FEET WITH NO
SIGNIFICANT WEATHER AND/OR OBSTRUCTIONS TO VISIBILITY.

KSZ001>006-013>018-027>032-041>047-051500-
NORTHWEST KANSAS

CITY           SKY/WX    TMP DP  RH WIND       PRES   REMARKS
GOODLAND       FOG       54  54 100 SE7       30.00S VSB 1
HAYS           CLOUDY    61  54  77 SE13      30.01S
HILL CITY      CLOUDY    60  58  92 E8        30.00S FOG
RUSSELL        CLOUDY    63  58  83 SE16      30.00R
$$

KSZ061>065-074>080-084>089-051500-
SOUTHWEST KANSAS

CITY           SKY/WX    TMP DP  RH WIND       PRES   REMARKS
DODGE CITY     CLOUDY    60  55  83 SE12      29.99R
ELKHART          N/A     56  53  90 E5          N/A
GARDEN CITY    RAIN      58  57  97 SE18      29.95S FOG
GREAT BEND     CLOUDY    63  55  77 SE15      30.01S
LIBERAL        CLOUDY    59  54  82 E10       29.94F
$$

KSZ066>073-081>083-090>101-051500-
SOUTHEAST KANSAS

CITY           SKY/WX    TMP DP  RH WIND       PRES   REMARKS
CHANUTE        MOSUNNY   68  58  70 SE12      30.10R
COFFEYVILLE    PTSUNNY   69  58  67 SE9       30.10R
HUTCHINSON     CLOUDY    65  54  67 SE13      30.04S
MEDICINE LODGE   N/A     63  55  75 SE10G18   30.02R
NEWTON         CLOUDY    63  54  72 S14       30.08S
PARSONS        PTSUNNY   70  59  68 SE7       30.11R
WICHITA INTL   CLOUDY    67  55  65 SE14      30.05S
WICHITA JABRA  CLOUDY    66  55  67 SE12      30.06S
WINFIELD       CLOUDY    65  57  75 SE12      30.07F
$$

KSZ007>012-019>026-033>040-048>060-102>105-051500-
NORTHEAST KANSAS

CITY           SKY/WX    TMP DP  RH WIND       PRES   REMARKS
CONCORDIA      PTSUNNY   66  59  78 S13       30.04S
EMPORIA        MOSUNNY   67  57  70 S13       30.08R
LAWRENCE       MOSUNNY   65  60  84 SE8       30.10S
MANHATTAN      CLOUDY    65  60  84 CALM      30.06S
OLATHE IND     MOSUNNY   67  59  75 S10       30.12S
OLATHE EXE     MOSUNNY   67  60  78 S9        30.11S
SALINA         CLOUDY    65  58  78 SE13      30.04S
TOPEKA BILLARD CLOUDY    66  61  84 E5        30.09S
TOPEKA FORBES  CLOUDY    69  60  73 S10       30.09R
$$



USA.gov is the U.S. government's official web portal to all federal, state and local government web resources and services.